Fort Sill, OK

12:02 PM CDT on May 24, 2017 (GMT -0500)
Post Army Air Field

Weather History for KFSI - November, 2013

Change the Weather History Date:

Friday, November 1, 2013

  Actual Average Record
Temperature  
Mean Temperature 57 °F -  
Max Temperature 72 °F 69 °F 87 °F (2001)
Min Temperature 42 °F 46 °F 24 °F (1993)
Degree Days  
Heating Degree Days 8    
Growing Degree Days 7 (Base 50)    
Moisture  
Dew Point 40 °F    
Average Humidity 60    
Maximum Humidity 91    
Minimum Humidity 28    
Precipitation  
Precipitation 0.00 in - - ()
Sea Level Pressure  
Sea Level Pressure 29.91 in    
Wind  
Wind Speed 6 mph (NNE)    
Max Wind Speed 21 mph    
Max Gust Speed 26 mph    
Visibility 8 miles    
Events      
Averages and records for this station are not official NWS values.
T = Trace of Precipitation, MM = Missing Value Source: NWS Daily Summary

Daily Weather History Graph

Daily Weather History Graph

Search for Another Location

Airport or City:

Trip Planner

Search our weather history database for the weather conditions in past years. The results will help you decide how hot, cold, wet, or windy it might be!

Date:

Astronomy

Nov. 01, 2013 Rise Set
Actual Time 7:54 AM CDT 6:39 PM CDT
Civil Twilight 7:28 AM CDT 7:05 PM CDT
Nautical Twilight 6:58 AM CDT 7:35 PM CDT
Astronomical Twilight 6:28 AM CDT 8:04 PM CDT
Moon 5:52 AM CDT (11/1) 5:30 PM CDT (11/1)
Length of Visible Light 11h 37m
Length of Day
10h 45m
Waning Crescent, 4% of the Moon is Illuminated
Nov 1
Waning Crescent
Nov 3
New
Nov 9
First Quarter
Nov 17
Full
Nov 25
Last Quarter

Hourly Weather History & Observations

Time (CDT) Temp. Windchill Dew Point Humidity Pressure Visibility Wind Dir Wind Speed Gust Speed Precip Events Conditions
12:28 AM 51.8 °F - 42.8 °F 71% 29.84 in 2.5 mi Calm Calm - N/A   Haze
12:43 AM 50.0 °F - 42.8 °F 76% 29.84 in 3.0 mi NE 1.2 mph - N/A   Haze
12:58 AM 48.0 °F - 41.9 °F 79% 29.83 in 8.0 mi Calm Calm - N/A   Clear
1:28 AM 46.4 °F - 42.8 °F 87% 29.83 in 2.5 mi North 1.2 mph - N/A   Haze
1:43 AM 48.2 °F - 42.8 °F 82% 29.83 in 3.0 mi North 2.3 mph - N/A   Haze
1:58 AM 47.3 °F - 41.9 °F 82% 29.83 in 5.0 mi North 4.6 mph - N/A   Haze
2:58 AM 44.2 °F 41.0 °F 41.2 °F 89% 29.81 in 7.0 mi North 5.8 mph - N/A   Clear
3:58 AM 44.4 °F 42.9 °F 41.2 °F 88% 29.81 in 5.0 mi NNE 3.5 mph - N/A   Clear
4:58 AM 43.0 °F 39.5 °F 40.3 °F 90% 29.81 in 4.0 mi North 5.8 mph - N/A   Clear
5:58 AM 45.0 °F - 40.6 °F 85% 29.81 in 7.0 mi SSW 2.3 mph - N/A   Clear
6:58 AM 42.1 °F 37.1 °F 39.2 °F 90% 29.81 in 10.0 mi NNE 8.1 mph - N/A   Clear
7:58 AM 42.4 °F 37.0 °F 39.9 °F 91% 29.82 in 10.0 mi NNE 9.2 mph - N/A   Clear
8:58 AM 49.5 °F - 43.7 °F 81% 29.85 in 10.0 mi NNE 10.4 mph - N/A   Clear
9:58 AM 57.7 °F - 46.2 °F 65% 29.87 in 10.0 mi ENE 8.1 mph - N/A   Clear
10:58 AM 66.6 °F - 44.1 °F 44% 29.88 in 10.0 mi East 10.4 mph - N/A   Clear
11:58 AM 70.5 °F - 41.5 °F 35% 29.89 in 10.0 mi ESE 11.5 mph - N/A   Clear
12:58 PM 70.0 °F - 46.8 °F 43% 29.91 in 10.0 mi NNE 20.7 mph - N/A   Clear
1:58 PM 71.8 °F - 39.9 °F 31% 29.90 in 10.0 mi NNE 17.3 mph 26.5 mph N/A   Clear
2:37 PM 71.6 °F - 39.2 °F 31% 29.91 in 10.0 mi North 16.1 mph - N/A   Clear
2:58 PM 72.0 °F - 39.7 °F 31% 29.91 in 10.0 mi North 16.1 mph 21.9 mph N/A   Clear
3:58 PM 72.3 °F - 37.2 °F 28% 29.91 in 10.0 mi North 19.6 mph 21.9 mph N/A   Clear
4:58 PM 71.1 °F - 37.2 °F 29% 29.94 in 10.0 mi NNW 17.3 mph 25.3 mph N/A   Clear
5:58 PM 68.5 °F - 33.6 °F 28% 29.96 in 10.0 mi North 13.8 mph - N/A   Clear
6:58 PM 63.9 °F - 34.3 °F 33% 30.00 in 10.0 mi North 15.0 mph 19.6 mph N/A   Clear
7:58 PM 61.7 °F - 36.7 °F 39% 30.05 in 10.0 mi North 13.8 mph - N/A   Clear
8:58 PM 59.0 °F - 36.9 °F 44% 30.09 in 10.0 mi North 10.4 mph - N/A   Clear
9:58 PM 52.7 °F - 37.2 °F 56% 30.10 in 10.0 mi North 5.8 mph - N/A   Clear
10:58 PM 51.6 °F - 37.2 °F 58% 30.12 in 10.0 mi NW 5.8 mph - N/A   Clear
11:58 PM 54.5 °F - 36.0 °F 50% 30.14 in 10.0 mi NW 5.8 mph - N/A   Clear